Location: Newark
(48.6676°N, 6.1917°E)
Time: 23:38:16
(UTC+00:00)

N. Korean satellite - Pass Details

Date: 12 December 2019
Orbit: 454 x 507 km, 97.2° (Epoch: 21 January)

Event Time Altitude Azimuth Distance (km) Brightness Sun altitude
Rises 16:20:28 0° 161° (SSE) 2,600 10.4 -6.6°
Reaches altitude 10° 16:22:33 10° 159° (SSE) 1,717 9.4 -7.0°
Maximum altitude 16:26:14 72° 76° (ENE) 535 6.6 -7.5°
Drops below altitude 10° 16:29:56 10° 351° (N) 1,714 9.2 -8.0°
Sets 16:32:00 0° 350° (N) 2,595 10.1 -8.3°
